New York Downtown Manhattan/w, NY

12:05 PM EDT on July 16, 2019 (GMT -0400)
New York Downtown Manhattan/w

Weather History for KJRB - May, 2019

Change the Weather History Date:

Tuesday, May 21, 2019

  Actual Average (KEWR) Record (KEWR)
Temperature  
Mean Temperature 66 °F -  
Max Temperature 75 °F 73 °F 96 °F (1996)
Min Temperature 57 °F 55 °F 42 °F (1950)
Cooling Degree Days 1    
Growing Degree Days 16 (Base 50)    
Moisture  
Dew Point 42 °F    
Average Humidity 43    
Maximum Humidity 60    
Minimum Humidity 26    
Precipitation  
Precipitation 0.05 in - - ()
Sea Level Pressure  
Sea Level Pressure 29.94 in    
Wind  
Wind Speed 4 mph ()    
Max Wind Speed 16 mph    
Max Gust Speed 67 mph    
Visibility 10.0 miles    
Events      
Averages and records for this station are not official NWS values.
T = Trace of Precipitation, MM = Missing Value Source: Averaged Metar Reports

Daily Weather History Graph

Daily Weather History Graph

Search for Another Location

Airport or City:

Astronomy

May. 21, 2019 Rise Set
Actual Time 5:34 AM EDT 8:11 PM EDT
Civil Twilight 5:02 AM EDT 8:43 PM EDT
Nautical Twilight 4:22 AM EDT 9:23 PM EDT
Astronomical Twilight 3:38 AM EDT 10:07 PM EDT
Moon 11:05 PM EDT (5/21) 7:47 AM EDT (5/21)
Length of Visible Light 15h 41m
Length of Day
14h 37m
Waning Gibbous, 91% of the Moon is Illuminated
May 21
Waning Gibbous
May 26
Last Quarter
Jun 3
New
Jun 10
First Quarter
Jun 17
Full

Hourly Weather History & Observations

Time (EDT) Temp. Dew Point Humidity Pressure Visibility Wind Dir Wind Speed Gust Speed Precip Events Conditions
12:56 AM 68.0 °F 52.0 °F 56% 29.81 in 10.0 mi Calm Calm - N/A   Clear
1:56 AM 66.0 °F 51.1 °F 59% 29.82 in 10.0 mi Calm Calm - N/A   Clear
2:56 AM 64.0 °F 50.0 °F 60% 29.84 in 10.0 mi Variable 3.5 mph - N/A   Clear
3:56 AM 62.1 °F 46.0 °F 56% 29.85 in 10.0 mi Variable 4.6 mph - N/A   Clear
4:56 AM 61.0 °F 46.0 °F 58% 29.86 in 10.0 mi Variable 4.6 mph - N/A   Scattered Clouds
5:56 AM 60.1 °F 42.1 °F 51% 29.89 in 10.0 mi Variable 5.8 mph - N/A   Partly Cloudy
6:56 AM 60.1 °F 44.1 °F 55% 29.90 in 10.0 mi Variable 5.8 mph - N/A   Overcast
7:56 AM 59.0 °F 42.1 °F 53% 29.94 in 10.0 mi Variable 5.8 mph - N/A   Mostly Cloudy
8:56 AM 57.9 °F 39.9 °F 51% 29.94 in 10.0 mi West 10.4 mph - N/A   Clear
9:56 AM 63.0 °F 41.0 °F 45% 29.95 in 10.0 mi West 8.1 mph - N/A   Clear
10:56 AM 64.9 °F 39.9 °F 40% 29.96 in 10.0 mi Variable 6.9 mph - N/A   Clear
11:56 AM 66.9 °F 42.1 °F 40% 29.96 in 10.0 mi Variable 4.6 mph 18.4 mph N/A   Clear
12:56 PM 68.0 °F 41.0 °F 37% 29.94 in 10.0 mi Variable 5.8 mph - N/A   Clear
1:56 PM 70.0 °F 42.1 °F 36% 29.93 in 10.0 mi West 16.1 mph 23.0 mph 0.01 in   Clear
2:56 PM 73.0 °F 41.0 °F 31% 29.92 in 10.0 mi Variable 4.6 mph 66.7 mph 0.01 in   Clear
3:56 PM 75.0 °F 39.0 °F 27% 29.92 in 10.0 mi Variable 6.9 mph - 0.03 in   Clear
4:56 PM 75.0 °F 39.9 °F 28% 29.93 in 10.0 mi Variable 4.6 mph - N/A   Clear
5:56 PM 75.0 °F 37.9 °F 26% 29.96 in 10.0 mi West 11.5 mph 44.9 mph N/A   Clear
6:56 PM 70.0 °F 39.9 °F 33% 29.97 in 10.0 mi Variable 4.6 mph - N/A   Clear
7:56 PM 69.1 °F 37.0 °F 31% 30.01 in 10.0 mi Variable 3.5 mph - N/A   Clear
8:56 PM 64.9 °F 39.0 °F 39% 30.05 in 10.0 mi Variable 4.6 mph - N/A   Clear
9:56 PM 64.0 °F 39.9 °F 41% 30.09 in 10.0 mi Variable 4.6 mph - N/A   Clear
10:56 PM 63.0 °F 37.9 °F 40% 30.11 in 10.0 mi Variable 3.5 mph - N/A   Clear
11:56 PM 62.1 °F 37.0 °F 39% 30.11 in 10.0 mi Calm Calm - N/A   Clear